Location: Sternwarte_Laufen
(47.9344°N, 12.9346°E)
Time: 19:07:11
(UTC+01:00)

ISS - Pass Details

Date: 28 May 2017
Orbit: 401 x 407 km, 51.6° (Epoch: 25 November)

Event Time Altitude Azimuth Distance (km) Brightness Sun altitude
Rises 23:12:05 0° 275° (W) 2,365 0.5 -15.9°
Reaches altitude 10° 23:14:15 10° 283° (WNW) 1,498 -0.4 -16.1°
Maximum altitude 23:17:29 42° 356° (N) 604 -2.5 -16.4°
Drops below altitude 10° 23:20:41 10° 70° (ENE) 1,489 -1.0 -16.6°
Enters shadow 23:22:47 - 77° (ENE) 2,325 -0.1 -16.7°
